Location: Cisewo
(53.3833°N, 14.9000°E)
Time: 12:15:43
(UTC+00:00)

Cosmos 1455 - Pass Details

Date: 18 April 2021
Orbit: 498 x 521 km, 82.5° (Epoch: 15 May)

Event Time Altitude Azimuth Distance (km) Brightness Sun altitude
Rises 19:15:09 0° 191° (S) 2,593 5.5 -9.9°
Reaches altitude 10° 19:17:15 10° 192° (SSW) 1,711 4.6 -10.1°
Maximum altitude 19:21:01 84° 282° (WNW) 511 2.2 -10.6°
Drops below altitude 10° 19:24:47 10° 10° (N) 1,718 5.2 -11.0°
Sets 19:26:54 0° 11° (N) 2,605 6.1 -11.3°
